Wind_Speed
19 18 18 17 16 15 15 15 13 13 13 12 11 11 11 10 8 8 2 11 21 17 14 15 16 17 17 13 11 9 11 10 8 8 8 7 5 5 7 6 6 6 9 13 12
18 16 17 16 15 16 16 15 14 14 14 13 14 13 12 12 10 5 8 19 18 15 14 14 14 15 9 11 8 3 5 10 5 4 7 7 6 4 7 6 5 7 10 12 11
15 14 14 14 16 17 16 15 15 15 15 15 15 15 15 16 12 3 8 20 19 16 13 12 12 9 8 7 7 3 4 5 4 7 7 7 5 6 6 5 6 7 8 12 8
12 13 13 14 16 17 16 15 15 16 16 17 17 17 17 15 6 9 10 19 17 14 13 13 9 8 8 6 5 3 5 6 7 9 8 6 5 3 6 8 9 7 9 11 8
11 12 12 13 15 15 16 16 17 17 17 16 18 18 17 7 7 15 14 16 13 13 7 5 5 6 4 5 7 7 9 8 7 7 6 8 5 4 6 5 8 9 9 10 11
12 13 14 15 15 17 17 18 19 18 16 16 18 17 16 6 11 15 14 14 8 6 5 5 5 3 7 11 4 9 8 7 6 5 6 7 5 5 7 9 9 10 10 9 9
12 15 16 17 18 19 20 19 18 15 14 17 15 15 10 9 10 15 13 12 13 10 4 7 6 7 8 7 8 9 7 4 5 5 4 5 9 5 6 6 9 11 10 10 10
14 16 18 19 20 22 21 19 15 13 13 13 13 12 5 7 6 15 13 8 6 7 8 9 10 9 8 8 8 7 7 10 6 6 7 7 13 11 7 6 8 10 14 13 12
17 19 21 23 24 23 21 17 14 13 13 13 12 9 3 4 7 14 12 7 9 9 9 9 10 6 7 8 8 8 13 5 5 7 6 8 1 7 8 12 13 15 11 12 13
20 22 24 26 25 23 20 18 16 16 15 13 12 6 5 6 9 11 12 12 9 10 8 5 3 4 6 10 14 8 5 7 4 4 5 9 10 11 11 14 11 12 14 14 14
23 26 26 26 25 23 21 19 18 17 15 6 9 5 6 8 9 11 12 13 11 7 6 5 8 1 2 3 4 1 3 4 3 7 4 8 7 7 4 1 7 8 10 11 12
24 25 25 26 25 23 23 13 15 14 9 10 9 10 10 12 7 9 14 6 8 7 7 4 4 2 4 2 1 2 4 3 6 4 3 6 6 3 2 7 7 7 8 11 15
22 23 26 26 22 22 19 21 17 19 10 10 12 6 11 10 8 11 10 6 6 7 5 2 5 5 2 2 2 4 4 4 7 9 11 9 11 7 5 7 9 11 11 10 9
22 23 25 23 21 21 18 20 19 16 7 6 3 5 8 11 4 8 9 9 4 6 7 3 6 2 1 2 4 7 4 9 10 8 8 9 5 10 8 8 9 9 8 7 6
22 23 24 25 22 19 21 21 18 9 3 6 3 6 8 4 8 3 8 6 6 7 5 3 2 1 2 3 5 5 10 8 7 8 9 10 12 12 11 8 5 6 5 4 10
22 23 23 22 25 23 21 21 12 1 3 5 5 8 7 7 5 7 5 7 9 5 5 5 3 1 2 5 3 5 7 6 4 4 6 2 8 10 9 8 6 6 4 4 10
22 22 22 22 23 23 19 18 5 4 7 6 9 8 7 7 8 8 6 5 4 5 4 4 1 2 2 3 4 7 6 6 3 4 1 2 7 4 4 6 7 5 3 6 15
22 23 23 21 22 20 18 11 6 3 8 9 12 12 6 8 6 5 7 6 4 2 4 5 6 2 5 2 3 6 4 4 4 3 6 3 6 8 6 4 6 5 5 9 17
21 22 24 22 22 21 16 11 3 6 9 14 14 8 7 5 6 5 8 5 4 4 1 1 2 1 3 4 4 4 3 1 1 2 3 6 4 6 8 5 3 3 3 5 6
21 22 22 21 21 21 10 9 5 13 12 14 8 7 7 7 6 6 4 4 4 5 5 1 2 2 4 4 5 2 1 4 3 3 4 3 12 6 7 6 6 7 9 11 12
20 15 20 21 21 16 9 7 9 15 17 10 7 7 8 7 6 5 4 5 5 2 4 2 1 1 4 1 3 4 2 3 5 4 4 5 7 4 5 7 7 10 14 16 15
20 9 23 23 15 13 8 7 14 18 16 12 7 8 8 8 5 4 6 4 4 1 1 2 0 1 2 6 4 2 3 4 4 4 6 7 15 6 2 8 12 14 14 17 18
11 12 24 23 12 18 15 13 16 16 13 10 11 10 8 9 4 6 6 5 3 1 1 2 1 3 3 1 2 3 5 6 6 7 12 11 11 8 11 16 13 15 17 16 15
10 12 21 22 13 13 14 13 17 17 15 13 11 11 10 8 6 8 6 5 4 5 3 1 1 2 7 9 10 11 13 13 13 14 16 20 23 19 16 18 15 16 15 18 24
13 12 19 21 17 12 12 12 13 16 16 12 11 9 10 7 7 6 6 6 6 5 4 2 2 5 9 12 13 15 17 17 19 20 23 24 22 21 21 15 15 16 16 22 22
14 15 19 11 16 14 14 13 14 13 12 13 9 12 9 6 4 8 5 4 3 4 3 5 4 10 14 11 14 18 21 19 18 14 18 18 18 16 12 17 18 23 26 31 42
19 17 16 19 18 15 14 14 13 14 14 9 12 11 13 9 10 9 9 9 7 4 5 6 4 7 7 15 24 10 2 4 9 11 13 14 17 17 17 18 24 28 34 37 40
Wind_Direction
258 249 243 237 232 229 224 222 219 211 210 202 185 186 184 169 142 134 92 170 148 140 135 141 151 153 158 173 163 123 151 152 167 176 175 170 170 177 186 170 142 154 156 194 204
256 244 237 231 223 218 215 212 207 201 196 183 177 177 170 138 122 81 155 154 145 138 139 145 153 150 165 177 184 182 181 131 155 164 176 174 171 170 131 175 166 151 148 173 187
248 235 226 218 211 207 206 203 197 187 182 174 170 167 153 131 99 165 153 157 147 140 132 139 149 139 169 173 190 200 154 154 177 163 168 171 162 143 146 159 177 176 165 178 190
235 219 209 206 202 200 197 192 182 176 176 167 167 168 147 133 128 166 139 161 148 143 124 116 124 145 144 157 161 162 136 165 166 163 159 155 174 164 158 163 170 165 179 186 196
218 205 196 192 190 187 184 176 172 174 171 166 171 160 156 129 153 153 137 153 147 151 137 147 158 145 146 156 151 158 146 149 146 158 153 180 161 185 178 194 174 167 175 180 189
197 187 182 174 178 175 168 166 168 171 167 174 175 164 152 185 170 159 143 132 132 144 176 169 184 152 128 137 158 156 143 147 155 156 164 150 204 158 193 190 188 190 186 197 194
178 172 168 168 165 161 159 159 164 164 170 178 168 172 145 224 184 171 161 156 157 143 186 189 166 136 159 170 153 163 153 147 189 197 205 193 213 214 195 175 211 215 208 207 212
160 157 156 156 155 152 152 154 153 161 167 164 173 169 205 196 191 182 175 175 167 156 153 140 153 166 166 196 175 177 197 201 170 195 228 229 250 202 202 217 234 227 226 217 218
149 150 149 148 146 146 147 145 145 146 150 163 169 144 257 206 181 189 188 170 169 148 145 142 144 177 190 175 192 205 227 195 192 196 216 225 261 198 256 253 251 231 229 224 220
141 143 144 143 143 143 139 133 133 135 137 150 166 132 202 195 167 167 165 157 150 149 155 146 138 157 186 216 247 165 216 211 213 192 237 239 238 264 279 274 238 222 229 231 222
145 144 143 143 143 142 136 127 128 134 127 149 169 183 166 136 139 149 152 146 147 171 199 205 226 191 152 305 339 137 239 254 231 255 250 229 241 257 309 161 189 205 211 206 196
145 144 146 147 148 145 136 124 160 149 135 163 160 154 140 132 121 155 149 146 186 197 201 220 184 195 244 280 279 267 272 247 268 247 281 239 223 232 111 146 148 161 164 170 199
149 151 152 153 151 148 149 147 162 127 126 131 140 128 142 128 155 175 155 169 189 207 212 290 171 214 162 309 315 288 302 287 293 281 272 241 217 202 131 130 129 121 128 134 152
154 154 154 156 154 150 149 145 145 118 131 139 146 167 129 125 153 172 186 174 176 163 154 168 208 159 271 314 344 297 271 302 291 277 270 211 202 181 173 142 127 128 126 135 151
160 160 160 164 163 164 158 153 149 120 182 158 186 150 162 141 144 151 166 159 181 197 151 196 156 45 311 279 316 292 288 288 273 260 268 233 259 140 174 171 183 161 155 168 223
165 161 162 168 169 161 163 163 163 7 171 160 149 134 106 140 163 139 138 160 137 126 127 155 192 179 299 309 307 313 317 287 269 239 242 205 273 157 160 172 196 197 186 215 249
171 167 167 169 176 170 170 167 178 245 177 172 160 138 140 114 123 107 123 122 182 170 179 144 154 300 329 343 336 342 302 263 213 196 255 144 275 49 115 137 166 187 211 240 252
176 173 173 174 172 172 169 163 206 179 169 167 155 148 155 125 108 127 122 88 88 120 170 210 178 59 340 59 303 350 9 10 301 342 318 191 266 128 152 169 218 230 234 272 272
178 176 177 173 174 171 158 195 228 176 187 157 154 159 157 160 148 117 113 97 104 131 136 215 119 0 19 37 21 328 31 358 306 331 259 275 227 217 178 159 169 236 263 284 300
177 177 179 177 174 172 170 204 217 184 161 167 172 177 172 163 153 155 151 140 97 117 113 197 182 223 307 359 351 45 354 315 356 309 298 309 303 52 173 227 259 300 298 290 298
170 168 181 175 171 169 195 209 205 187 161 166 189 169 173 159 162 152 166 159 137 101 76 59 42 301 23 4 332 333 324 337 307 301 296 302 315 343 289 268 269 287 298 299 296
171 172 175 168 166 181 202 195 181 178 184 184 153 155 173 160 156 153 167 179 175 98 58 342 35 266 290 292 285 297 295 297 287 291 261 276 282 297 181 298 292 298 302 305 306
160 200 178 175 197 191 197 198 181 182 184 194 203 190 178 165 160 150 176 191 202 198 199 339 342 303 230 314 352 298 280 271 266 263 257 261 269 295 297 309 308 310 304 305 287
161 168 182 188 182 199 197 191 197 199 199 204 204 193 186 180 175 176 194 212 241 266 268 291 271 267 298 306 301 291 283 279 266 263 274 275 286 290 298 306 306 308 304 285 290
176 179 187 203 198 185 188 196 193 202 206 198 197 187 181 161 153 164 183 240 249 252 269 211 244 284 285 298 301 292 284 279 269 271 268 282 285 296 300 304 312 314 306 306 309
193 195 199 201 196 188 201 194 185 195 191 197 184 174 175 195 184 194 191 203 236 267 222 282 276 306 315 310 313 298 289 279 272 269 275 281 285 295 307 304 303 301 312 301 311
206 209 210 210 203 197 201 191 188 198 202 178 175 166 169 165 202 213 221 235 239 223 252 275 289 316 288 318 317 320 44 303 286 285 282 278 295 295 305 292 292 303 307 309 311
Height
3109 3110 3111 3113 3115 3117 3119 3121 3123 3125 3127 3129 3131 3133 3134 3135 3136 3138 3141 3139 3141 3142 3142 3143 3145 3146 3148 3151 3154 3155 3152 3154 3157 3158 3160 3161 3162 3163 3162 3163 3164 3164 3165 3165 3163
3105 3106 3108 3110 3112 3114 3116 3118 3121 3123 3126 3128 3131 3133 3135 3136 3139 3143 3141 3141 3143 3143 3143 3145 3147 3149 3153 3153 3157 3154 3152 3154 3159 3159 3161 3163 3163 3162 3162 3163 3164 3164 3162 3162 3163
3101 3103 3105 3107 3109 3112 3114 3117 3120 3122 3125 3128 3131 3133 3136 3139 3142 3143 3142 3142 3144 3145 3146 3147 3149 3152 3154 3155 3156 3154 3152 3157 3160 3161 3162 3164 3161 3162 3164 3165 3165 3166 3164 3164 3163
3099 3100 3102 3105 3107 3110 3113 3116 3120 3122 3125 3129 3131 3134 3137 3141 3147 3143 3144 3145 3146 3146 3148 3150 3153 3156 3154 3155 3155 3156 3158 3161 3161 3161 3163 3162 3163 3164 3165 3164 3166 3166 3165 3164 3163
3096 3098 3101 3104 3106 3110 3113 3116 3120 3123 3126 3129 3132 3135 3138 3143 3145 3143 3145 3146 3148 3149 3151 3153 3155 3154 3153 3154 3156 3158 3161 3161 3161 3161 3161 3160 3162 3165 3164 3164 3164 3166 3165 3165 3166
3095 3098 3100 3103 3106 3110 3113 3117 3121 3124 3127 3130 3133 3136 3141 3146 3142 3144 3145 3147 3150 3152 3153 3153 3154 3154 3155 3157 3160 3161 3161 3162 3162 3161 3160 3162 3165 3162 3164 3164 3163 3165 3165 3166 3166
3095 3098 3100 3104 3107 3110 3114 3119 3123 3126 3129 3132 3134 3138 3141 3144 3143 3145 3147 3147 3148 3149 3153 3150 3153 3155 3157 3159 3160 3161 3162 3162 3162 3161 3163 3161 3164 3164 3162 3164 3164 3165 3165 3166 3168
3096 3098 3101 3105 3108 3113 3117 3121 3125 3128 3131 3133 3136 3140 3144 3141 3143 3145 3146 3149 3149 3150 3150 3151 3152 3156 3159 3159 3161 3161 3161 3160 3160 3162 3162 3162 3158 3162 3162 3162 3163 3162 3166 3164 3166
3097 3100 3103 3107 3111 3116 3120 3124 3127 3129 3132 3135 3139 3142 3144 3142 3143 3144 3146 3149 3150 3151 3152 3153 3155 3158 3158 3160 3160 3160 3155 3158 3161 3161 3162 3162 3157 3159 3159 3157 3160 3162 3162 3163 3165
3099 3103 3106 3110 3114 3118 3122 3125 3128 3131 3134 3138 3140 3145 3143 3145 3143 3145 3147 3148 3151 3152 3155 3155 3157 3157 3158 3158 3154 3153 3156 3157 3158 3160 3159 3159 3158 3158 3156 3153 3154 3157 3160 3161 3162
3103 3106 3109 3113 3117 3121 3124 3127 3134 3137 3136 3141 3142 3142 3142 3143 3144 3146 3148 3150 3152 3155 3157 3157 3157 3156 3156 3157 3156 3156 3158 3157 3157 3157 3156 3156 3157 3156 3153 3152 3152 3154 3156 3158 3160
3106 3109 3112 3116 3120 3123 3127 3130 3135 3138 3139 3139 3140 3141 3142 3143 3148 3148 3149 3153 3154 3156 3156 3157 3156 3157 3157 3157 3158 3158 3157 3156 3156 3154 3154 3154 3154 3154 3152 3151 3153 3154 3154 3155 3153
3108 3112 3115 3119 3122 3125 3128 3131 3135 3137 3142 3142 3142 3144 3144 3147 3146 3146 3149 3152 3154 3155 3156 3155 3156 3155 3157 3158 3157 3156 3155 3155 3156 3155 3154 3153 3152 3153 3152 3151 3151 3153 3153 3154 3153
3111 3114 3117 3121 3126 3128 3131 3133 3137 3139 3144 3147 3147 3146 3146 3145 3147 3147 3148 3151 3152 3155 3155 3156 3154 3155 3156 3156 3155 3155 3153 3153 3153 3154 3148 3149 3142 3149 3151 3152 3152 3153 3152 3152 3151
3113 3116 3118 3122 3125 3130 3133 3134 3138 3140 3141 3147 3145 3144 3145 3148 3148 3148 3148 3150 3153 3153 3155 3156 3155 3156 3156 3155 3154 3155 3151 3151 3151 3150 3148 3146 3145 3145 3149 3151 3152 3153 3151 3150 3149
3114 3116 3119 3123 3126 3129 3132 3136 3140 3144 3142 3144 3145 3146 3147 3146 3146 3148 3149 3150 3151 3154 3154 3154 3154 3155 3155 3153 3152 3152 3152 3151 3149 3148 3146 3144 3146 3142 3145 3149 3151 3151 3150 3149 3147
3114 3116 3120 3123 3126 3130 3133 3138 3144 3142 3143 3145 3145 3146 3148 3148 3147 3150 3151 3151 3153 3155 3154 3155 3156 3154 3153 3154 3153 3153 3151 3147 3146 3145 3142 3146 3147 3144 3145 3147 3150 3150 3150 3147 3146
3114 3116 3120 3123 3127 3130 3134 3141 3141 3140 3142 3142 3145 3147 3149 3149 3149 3150 3152 3152 3150 3152 3153 3153 3155 3155 3153 3153 3154 3153 3152 3151 3148 3144 3143 3145 3142 3143 3145 3145 3146 3147 3146 3145 3144
3114 3117 3120 3124 3127 3131 3135 3140 3138 3140 3141 3142 3146 3147 3148 3148 3150 3151 3151 3151 3150 3150 3154 3153 3154 3153 3152 3152 3154 3153 3153 3153 3152 3151 3150 3142 3142 3144 3143 3145 3147 3147 3147 3145 3143
3114 3117 3120 3123 3127 3131 3136 3137 3137 3136 3139 3143 3145 3145 3147 3148 3150 3151 3152 3151 3151 3151 3151 3153 3154 3153 3152 3152 3153 3153 3153 3153 3152 3153 3148 3138 3141 3137 3144 3146 3146 3147 3145 3143 3141
3114 3118 3120 3123 3127 3131 3135 3136 3134 3135 3138 3143 3144 3145 3146 3147 3149 3150 3151 3151 3151 3151 3151 3152 3154 3156 3153 3154 3154 3154 3154 3154 3154 3154 3150 3146 3145 3144 3145 3145 3144 3143 3141 3139 3136
3115 3120 3120 3124 3130 3131 3134 3133 3134 3136 3138 3140 3143 3144 3146 3146 3148 3149 3151 3150 3150 3150 3153 3151 3152 3154 3155 3151 3151 3153 3154 3154 3154 3153 3153 3153 3147 3142 3143 3142 3140 3139 3137 3132 3130
3117 3117 3120 3124 3128 3128 3130 3132 3133 3136 3138 3140 3140 3142 3144 3146 3147 3148 3148 3149 3149 3150 3151 3151 3153 3153 3151 3152 3152 3152 3152 3152 3152 3151 3149 3149 3145 3141 3140 3139 3137 3135 3132 3128 3124
3117 3118 3121 3123 3125 3129 3130 3131 3133 3134 3136 3138 3140 3142 3143 3145 3146 3146 3147 3148 3149 3149 3149 3150 3153 3154 3154 3153 3152 3151 3150 3149 3149 3147 3145 3142 3139 3138 3137 3135 3132 3130 3128 3123 3119
3115 3117 3118 3121 3124 3127 3130 3131 3132 3133 3135 3138 3140 3142 3143 3144 3146 3146 3148 3147 3147 3148 3148 3150 3151 3151 3150 3149 3149 3147 3145 3143 3142 3141 3140 3137 3136 3135 3133 3129 3127 3125 3122 3117 3112
3113 3116 3118 3120 3122 3126 3126 3130 3132 3132 3135 3137 3140 3141 3143 3143 3145 3145 3147 3148 3148 3146 3148 3148 3149 3147 3146 3146 3144 3141 3138 3137 3136 3136 3134 3133 3132 3131 3128 3126 3123 3117 3114 3109 3104
3111 3114 3117 3118 3121 3124 3126 3128 3131 3130 3134 3136 3138 3139 3140 3141 3142 3142 3143 3144 3145 3146 3146 3147 3146 3146 3144 3142 3138 3134 3133 3134 3134 3133 3132 3130 3129 3126 3125 3119 3114 3110 3107 3103 3096